This is the latest recevied weather packets stored in our database for station/object KB3VSP. If no packets are shown the sender has not sent any weather packets the latest 10 day(s).
| Time | Temp. | Humidity | Pressure | Rain* | Wind** | Luminosity | Snow |
|---|---|---|---|---|---|---|---|
| 1778104262 | 12.22° C | 65% | 1011.9 hPa | 0 mm | - | 55 W/m² | - |
| 1778103959 | 12.22° C | 67% | 1011.7 hPa | 0 mm | - | 80 W/m² | - |
| 1778103656 | 12.22° C | 66% | 1011.9 hPa | 0 mm | - | 77 W/m² | - |
| 1778103355 | 12.78° C | 65% | 1011.7 hPa | 0 mm | - | 65 W/m² | - |
| 1778103052 | 12.78° C | 69% | 1011.8 hPa | 0 mm | - | 102 W/m² | - |
| 1778102748 | 12.22° C | 71% | 1011.6 hPa | 0 mm | - | 87 W/m² | - |
| 1778102443 | 12.22° C | 68% | 1011.6 hPa | 0 mm | - | 86 W/m² | - |
| 1778102139 | 12.22° C | 69% | 1011.5 hPa | 0 mm | - | 63 W/m² | - |
| 1778101836 | 12.22° C | 69% | 1011.5 hPa | 0 mm | - | 55 W/m² | - |
| 1778101533 | 12.78° C | 68% | 1011.7 hPa | 0 mm | - | 73 W/m² | - |
| 1778101230 | 12.78° C | 68% | 1011.5 hPa | 0 mm | - | 132 W/m² | - |
| 1778100927 | 12.22° C | 69% | 1011.6 hPa | 0 mm | - | 118 W/m² | - |
| 1778100622 | 12.22° C | 71% | 1011.3 hPa | 0 mm | - | 139 W/m² | - |
| 1778100320 | 12.22° C | 69% | 1011.4 hPa | 0 mm | - | 161 W/m² | - |
| 1778100016 | 12.78° C | 72% | 1011.2 hPa | 0 mm | - | 117 W/m² | - |
| 1778099715 | 12.22° C | 77% | 1011.2 hPa | 0 mm | - | 152 W/m² | - |
| 1778099411 | 12.22° C | 73% | 1011.4 hPa | 0 mm | - | 147 W/m² | - |
| 1778099109 | 11.67° C | 75% | 1011.3 hPa | 0 mm | - | 121 W/m² | - |
| 1778098804 | 11.67° C | 75% | 1011.2 hPa | 0 mm | - | 64 W/m² | - |
| 1778098502 | 11.67° C | 73% | 1011.5 hPa | 0 mm | - | 33 W/m² | - |
| 1778098199 | 12.22° C | 75% | 1011.2 hPa | 0 mm | - | 30 W/m² | - |
| 1778097895 | 12.22° C | 75% | 1011.1 hPa | 0 mm | - | 65 W/m² | - |
| 1778097591 | 12.22° C | 74% | 1011.2 hPa | 0 mm | - | 127 W/m² | - |
| 1778097289 | 12.22° C | 75% | 1011.3 hPa | 0 mm | - | 129 W/m² | - |
| 1778096985 | 12.22° C | 78% | 1011.3 hPa | 0 mm | - | 126 W/m² | - |
* Rain latest hour (hover to see other rain measurements)
** Current wind speed in m/s (hover to see current wind gust speed)